| time (UTC) | temp F | wind direction | speed MPH | gust MPH | rain 1hr in | rain 24hr in | rain mn in | humidity % | barometer mb |
| 20260507214537 | 73 | 111 | 0.0 | 3.0 | 0.00 | 0.00 | 0.00 | 46 | 994.0 |
| 20260507213039 | 74 | 87 | 0.0 | 3.0 | 0.00 | 0.00 | 0.00 | 44 | 994.2 |
| 20260507211534 | 73 | 316 | 1.0 | 5.0 | 0.00 | 0.00 | 0.00 | 43 | 994.4 |
| 20260507210031 | 73 | 55 | 0.0 | 5.0 | 0.00 | 0.00 | 0.00 | 45 | 994.5 |
| 20260507204529 | 74 | 59 | 2.0 | 7.0 | 0.00 | 0.00 | 0.00 | 43 | 994.6 |
| 20260507203028 | 74 | 106 | 1.0 | 5.0 | 0.00 | 0.00 | 0.00 | 43 | 994.6 |
| 20260507201531 | 75 | 70 | 2.0 | 7.0 | 0.00 | 0.00 | 0.00 | 43 | 994.9 |
| 20260507200023 | 74 | 319 | 3.0 | 6.0 | 0.00 | 0.00 | 0.00 | 44 | 995.2 |
| 20260507194522 | 73 | 112 | 2.0 | 7.0 | 0.00 | 0.00 | 0.00 | 45 | 995.3 |
| 20260507193025 | 73 | 1 | 3.0 | 8.0 | 0.00 | 0.00 | 0.00 | 46 | 995.6 |
| 20260507191514 | 72 | 102 | 3.0 | 9.0 | 0.00 | 0.00 | 0.00 | 46 | 995.9 |
| 20260507190015 | 72 | 275 | 2.0 | 7.0 | 0.00 | 0.00 | 0.00 | 47 | 996.0 |
| 20260507184511 | 72 | 62 | 3.0 | 6.0 | 0.00 | 0.00 | 0.00 | 47 | 996.0 |
| 20260507183013 | 71 | 7 | 3.0 | 9.0 | 0.00 | 0.00 | 0.00 | 47 | 996.3 |
| 20260507181506 | 70 | 1 | 3.0 | 10.0 | 0.00 | 0.00 | 0.00 | 48 | 996.4 |
| 20260507180004 | 69 | 31 | 2.0 | 8.0 | 0.00 | 0.00 | 0.00 | 49 | 996.8 |
| 20260507174501 | 69 | 18 | 3.0 | 8.0 | 0.00 | 0.00 | 0.00 | 50 | 996.9 |
| 20260507173100 | 68 | 359 | 2.0 | 9.0 | 0.00 | 0.00 | 0.00 | 50 | 997.4 |
| 20260507171557 | 68 | 111 | 3.0 | 6.0 | 0.00 | 0.00 | 0.00 | 50 | 997.8 |
| 20260507170055 | 67 | 131 | 1.0 | 6.0 | 0.00 | 0.00 | 0.00 | 54 | 998.3 |
| 20260507164612 | 66 | 63 | 1.0 | 4.0 | 0.00 | 0.00 | 0.00 | 57 | 998.5 |
| 20260507163050 | 66 | 100 | 1.0 | 7.0 | 0.00 | 0.00 | 0.00 | 59 | 998.5 |
| 20260507161552 | 66 | 284 | 2.0 | 5.0 | 0.00 | 0.00 | 0.00 | 57 | 998.4 |
| 20260507160048 | 65 | 108 | 2.0 | 7.0 | 0.00 | 0.00 | 0.00 | 60 | 998.5 |
| 20260507154545 | 64 | 360 | 2.0 | 7.0 | 0.00 | 0.07 | 0.00 | 61 | 998.6 |
| 20260507153043 | 64 | 53 | 2.0 | 8.0 | 0.00 | 0.07 | 0.00 | 60 | 998.7 |
| 20260507151540 | 63 | 1 | 3.0 | 8.0 | 0.00 | 0.07 | 0.00 | 64 | 998.9 |
| 20260507150038 | 62 | 278 | 2.0 | 6.0 | 0.00 | 0.07 | 0.00 | 67 | 999.0 |
| 20260507144534 | 62 | 52 | 1.0 | 5.0 | 0.00 | 0.07 | 0.00 | 69 | 999.1 |
| 20260507143054 | 61 | 93 | 1.0 | 4.0 | 0.00 | 0.07 | 0.00 | 71 | 999.2 |
| 20260507141538 | 60 | 77 | 2.0 | 5.0 | 0.00 | 0.07 | 0.00 | 74 | 999.3 |
| 20260507140026 | 58 | 11 | 1.0 | 4.0 | 0.00 | 0.07 | 0.00 | 76 | 999.4 |
| 20260507134523 | 57 | 274 | 1.0 | 4.0 | 0.00 | 0.07 | 0.00 | 78 | 999.5 |
| 20260507133021 | 57 | 6 | 0.0 | 3.0 | 0.00 | 0.07 | 0.00 | 80 | 999.7 |
| 20260507131520 | 55 | 325 | 1.0 | 3.0 | 0.00 | 0.07 | 0.00 | 81 | 999.5 |
| 20260507130031 | 55 | 316 | 0.0 | 2.0 | 0.00 | 0.07 | 0.00 | 83 | 999.5 |
| 20260507124515 | 54 | 322 | 0.0 | 2.0 | 0.00 | 0.07 | 0.00 | 84 | 999.2 |
| 20260507123014 | 53 | 283 | 0.0 | 2.0 | 0.00 | 0.07 | 0.00 | 86 | 999.2 |
| 20260507121512 | 53 | 257 | 0.0 | 2.0 | 0.00 | 0.07 | 0.00 | 86 | 999.2 |
| 20260507120009 | 53 | 257 | 0.0 | 1.0 | 0.00 | 0.07 | 0.00 | 86 | 998.7 |
| 20260507114506 | 53 | 257 | 0.0 | 1.0 | 0.00 | 0.07 | 0.00 | 85 | 998.6 |
| 20260507113005 | 53 | 240 | 0.0 | 2.0 | 0.00 | 0.07 | 0.00 | 86 | 998.5 |
| 20260507111503 | 53 | 313 | 0.0 | 3.0 | 0.00 | 0.07 | 0.00 | 86 | 998.6 |
| 20260507110001 | 53 | 305 | 1.0 | 3.0 | 0.00 | 0.07 | 0.00 | 86 | 998.4 |
| 20260507104604 | 53 | 322 | 0.0 | 2.0 | 0.00 | 0.07 | 0.00 | 86 | 998.2 |
| 20260507103056 | 53 | 15 | 0.0 | 2.0 | 0.00 | 0.07 | 0.00 | 86 | 998.0 |
| 20260507101556 | 53 | 15 | 0.0 | 0.0 | 0.00 | 0.07 | 0.00 | 86 | 997.6 |
| 20260507100058 | 54 | 15 | 0.0 | 0.0 | 0.00 | 0.07 | 0.00 | 85 | 997.5 |
| 20260507094550 | 54 | 15 | 0.0 | 0.0 | 0.00 | 0.07 | 0.00 | 84 | 997.1 |
| 20260507093048 | 55 | 15 | 0.0 | 1.0 | 0.00 | 0.07 | 0.00 | 84 | 997.0 |
| 20260507091545 | 55 | 15 | 0.0 | 1.0 | 0.00 | 0.07 | 0.00 | 83 | 996.9 |
| 20260507090055 | 56 | 15 | 0.0 | 2.0 | 0.00 | 0.07 | 0.00 | 82 | 996.8 |
| 20260507084550 | 56 | 57 | 0.0 | 1.0 | 0.00 | 0.07 | 0.00 | 82 | 996.9 |
| 20260507083040 | 56 | 8 | 0.0 | 2.0 | 0.00 | 0.07 | 0.00 | 81 | 996.9 |
| 20260507081545 | 56 | 16 | 0.0 | 2.0 | 0.00 | 0.07 | 0.00 | 81 | 996.9 |
| 20260507080036 | 57 | 43 | 0.0 | 4.0 | 0.00 | 0.07 | 0.00 | 81 | 996.7 |
| 20260507074534 | 57 | 25 | 0.0 | 3.0 | 0.00 | 0.07 | 0.00 | 80 | 996.5 |
| 20260507073032 | 57 | 1 | 2.0 | 5.0 | 0.00 | 0.07 | 0.00 | 79 | 996.4 |
| 20260507071535 | 57 | 34 | 1.0 | 8.0 | 0.00 | 0.07 | 0.00 | 78 | 996.3 |
| 20260507070034 | 57 | 18 | 2.0 | 6.0 | 0.00 | 0.07 | 0.00 | 78 | 996.3 |
| 20260507064548 | 58 | 11 | 1.0 | 4.0 | 0.00 | 0.07 | 0.00 | 77 | 996.4 |
| 20260507063033 | 58 | 23 | 1.0 | 4.0 | 0.00 | 0.07 | 0.00 | 76 | 996.2 |
| 20260507061530 | 57 | 49 | 1.0 | 4.0 | 0.00 | 0.07 | 0.00 | 76 | 996.0 |
| 20260507060024 | 58 | 1 | 0.0 | 2.0 | 0.00 | 0.07 | 0.00 | 76 | 996.0 |
| 20260507054522 | 58 | 360 | 0.0 | 4.0 | 0.00 | 0.07 | 0.00 | 75 | 996.0 |
| 20260507053022 | 58 | 6 | 1.0 | 3.0 | 0.00 | 0.07 | 0.00 | 74 | 995.8 |
| 20260507051519 | 58 | 139 | 1.0 | 5.0 | 0.00 | 0.07 | 0.00 | 73 | 995.9 |
| 20260507050032 | 59 | 68 | 1.0 | 5.0 | 0.00 | 0.07 | 0.00 | 72 | 995.9 |
| 20260507044513 | 59 | 360 | 3.0 | 8.0 | 0.00 | 0.07 | 0.07 | 71 | 996.1 |
| 20260507043013 | 59 | 359 | 2.0 | 12.0 | 0.00 | 0.07 | 0.07 | 70 | 996.0 |
| 20260507041522 | 60 | 51 | 2.0 | 7.0 | 0.00 | 0.07 | 0.07 | 70 | 996.2 |
| 20260507040013 | 60 | 342 | 2.0 | 8.0 | 0.00 | 0.07 | 0.07 | 70 | 996.2 |
| 20260507034512 | 60 | 40 | 2.0 | 9.0 | 0.00 | 0.07 | 0.07 | 70 | 996.2 |
| 20260507033011 | 60 | 32 | 3.0 | 7.0 | 0.00 | 0.07 | 0.07 | 70 | 996.3 |
| 20260507031510 | 60 | 9 | 2.0 | 11.0 | 0.00 | 0.07 | 0.07 | 70 | 996.2 |
| 20260507030017 | 61 | 103 | 3.0 | 8.0 | 0.00 | 0.07 | 0.07 | 70 | 996.0 |
| 20260507024512 | 61 | 333 | 4.0 | 9.0 | 0.00 | 0.07 | 0.07 | 69 | 995.7 |
| 20260507023005 | 61 | 329 | 3.0 | 12.0 | 0.00 | 0.07 | 0.07 | 69 | 995.3 |
| 20260507021502 | 62 | 62 | 3.0 | 9.0 | 0.00 | 0.07 | 0.07 | 70 | 994.9 |
| 20260507020002 | 62 | 56 | 4.0 | 13.0 | 0.00 | 0.07 | 0.07 | 70 | 994.8 |
| 20260507014602 | 62 | 23 | 3.0 | 10.0 | 0.00 | 0.07 | 0.07 | 70 | 994.5 |
| 20260507013100 | 62 | 6 | 3.0 | 10.0 | 0.00 | 0.07 | 0.07 | 70 | 994.0 |
| 20260507011600 | 62 | 360 | 4.0 | 8.0 | 0.00 | 0.07 | 0.07 | 70 | 993.6 |
| 20260507010111 | 62 | 359 | 3.0 | 10.0 | 0.00 | 0.07 | 0.07 | 70 | 993.5 |
| 20260507004559 | 63 | 1 | 2.0 | 8.0 | 0.00 | 0.07 | 0.07 | 69 | 993.4 |
| 20260507003058 | 63 | 360 | 2.0 | 8.0 | 0.00 | 0.07 | 0.07 | 70 | 993.3 |
| 20260507001608 | 63 | 23 | 3.0 | 9.0 | 0.00 | 0.07 | 0.07 | 70 | 993.2 |
| 20260507000057 | 64 | 316 | 4.0 | 8.0 | 0.00 | 0.07 | 0.07 | 69 | 992.9 |
| 20260506234559 | 64 | 359 | 2.0 | 6.0 | 0.00 | 0.07 | 0.07 | 69 | 992.7 |
| 20260506233059 | 64 | 2 | 4.0 | 9.0 | 0.00 | 0.07 | 0.07 | 69 | 992.6 |
| 20260506231609 | 65 | 48 | 1.0 | 11.0 | 0.00 | 0.07 | 0.07 | 68 | 992.3 |
| 20260506230110 | 65 | 359 | 0.0 | 6.0 | 0.00 | 0.07 | 0.07 | 69 | 992.3 |
| 20260506224553 | 65 | 16 | 2.0 | 7.0 | 0.00 | 0.07 | 0.07 | 69 | 992.2 |
| 20260506223051 | 64 | 39 | 3.0 | 8.0 | 0.00 | 0.07 | 0.07 | 69 | 992.2 |
| 20260506221609 | 64 | 1 | 4.0 | 8.0 | 0.00 | 0.07 | 0.07 | 69 | 992.0 |
| 20260506220104 | 64 | 37 | 3.0 | 6.0 | 0.00 | 0.07 | 0.07 | 69 | 992.2 |